Overview Statistics Trail Chart Weather Telemetry Raw packets
 

This is the latest recevied weather packets stored in our database for station/object N9BLE. If no packets are shown the sender has not sent any weather packets the latest 10 day(s).

<< 107 108 109 110 111 >>
Time Temp. Humidity Pressure Rain* Wind** Luminosity Snow
1777195676 6.67° C 93% 1021 hPa 0 mm - 0 W/m² -
1777195372 6.67° C 93% 1020.8 hPa 0 mm - 0 W/m² -
1777195069 6.67° C 93% 1020.6 hPa 0 mm - 0 W/m² -
1777194763 6.67° C 93% 1020.5 hPa 0 mm - 0 W/m² -
1777194460 6.67° C 92% 1020.4 hPa 0 mm - 0 W/m² -
1777194157 6.67° C 92% 1020.4 hPa 0 mm - 0 W/m² -
1777193853 6.67° C 92% 1020.3 hPa 0 mm - 0 W/m² -
1777193547 6.67° C 92% 1020.4 hPa 0 mm - 0 W/m² -
1777193247 6.67° C 92% 1020.3 hPa 0 mm - 0 W/m² -
1777192942 6.67° C 92% 1020.2 hPa 0 mm - 0 W/m² -
1777192639 7.22° C 92% 1020.3 hPa 0 mm - 0 W/m² -
1777192335 6.67° C 93% 1020.2 hPa 0 mm - 0 W/m² -
1777192032 6.11° C 92% 1020 hPa 0 mm - 0 W/m² -
1777191729 6.67° C 91% 1020.2 hPa 0 mm - 0 W/m² -
1777191425 6.67° C 91% 1019.9 hPa 0 mm - 0 W/m² -
1777191121 7.22° C 91% 1020 hPa 0 mm - 0 W/m² -
1777190818 7.22° C 91% 1019.9 hPa 0 mm - 0 W/m² -
1777190515 7.22° C 91% 1019.8 hPa 0 mm - 0 W/m² -
1777190210 7.22° C 91% 1019.7 hPa 0 mm - 0 W/m² -
1777189907 7.22° C 91% 1019.8 hPa 0 mm - 0 W/m² -
1777189604 7.22° C 90% 1020 hPa 0 mm - 0 W/m² -
1777189303 7.78° C 89% 1019.8 hPa 0 mm - 0 W/m² -
1777188998 7.78° C 89% 1019.6 hPa 0 mm - 0 W/m² -
1777188696 7.78° C 89% 1019.3 hPa 0 mm - 0 W/m² -
1777188393 7.78° C 89% 1019.4 hPa 0 mm - 0 W/m² -

* Rain latest hour (hover to see other rain measurements)
** Current wind speed in m/s (hover to see current wind gust speed)